This demonstration page uses our WeatherBlox Daily Observations layout. Learn more.

Hourly Observations for May 29, 2019

Temp ( °F °C ) Dew Point ( °F °C ) Humidity (%) Winds ( mph kmh ) Pressure ( in mb ) Visibility ( mi km ) Precip ( " mm )
12:15 am 00:15 Clear 77 25 68 20 74 74 Calm 29.77 1008 10 16.09344 0 0
12:35 am 00:35 Clear 75 24 68 20 78 78 Calm 29.77 1008 10 16.09344 0 0
12:55 am 00:55 Clear 75 24 68 20 78 78 S 5 7 29.77 1008 10 16.09344 0 0
1:15 am 01:15 Clear 75 24 68 20 78 78 Calm 29.77 1008 10 16.09344 0 0
1:35 am 01:35 Clear 72 22 68 20 88 88 W 3 6 29.77 1008 10 16.09344 0 0
1:55 am 01:55 Clear 70 21 68 20 94 94 WSW 5 7 29.74 1007 10 16.09344 0 0
2:15 am 02:15 Clear 70 21 68 20 94 94 W 3 6 29.74 1007 10 16.09344 0 0
2:35 am 02:35 Clear 70 21 68 20 94 94 NW 3 6 29.77 1008 10 16.09344 0 0
2:55 am 02:55 Clear 73 23 66 19 78 78 Calm 29.77 1008 10 16.09344 0 0
3:15 am 03:15 Clear 72 22 68 20 88 88 Calm 29.77 1008 10 16.09344 0 0
3:35 am 03:35 Clear 72 22 68 20 88 88 Calm 29.77 1008 10 16.09344 0 0
3:55 am 03:55 Clear 70 21 68 20 94 94 Calm 29.77 1008 10 16.09344 0 0
4:15 am 04:15 Clear 68 20 66 19 94 94 Calm 29.77 1008 10 16.09344 0 0
4:35 am 04:35 Clear 68 20 66 19 94 94 W 6 9 29.77 1008 10 16.09344 0 0
4:55 am 04:55 Clear 68 20 66 19 94 94 W 3 6 29.77 1008 10 16.09344 0 0
5:15 am 05:15 Clear 68 20 64 18 88 88 W 5 7 29.77 1008 10 16.09344 0 0
5:35 am 05:35 Clear 72 22 64 18 78 78 WSW 5 7 29.77 1008 10 16.09344 0 0
5:55 am 05:55 Sunny 72 22 64 18 78 78 SW 6 9 29.77 1008 10 16.09344 0 0
6:15 am 06:15 Sunny 72 22 64 18 78 78 Calm 29.77 1008 10 16.09344 0 0
6:35 am 06:35 Sunny 72 22 64 18 78 78 SSW 6 9 29.8 1009 10 16.09344 0 0
6:55 am 06:55 Sunny 73 23 66 19 78 78 Calm 29.8 1009 10 16.09344 0 0
7:15 am 07:15 Sunny 75 24 68 20 78 78 Calm 29.8 1009 10 16.09344 0 0
7:35 am 07:35 Sunny 77 25 68 20 74 74 Calm 29.8 1009 10 16.09344 0 0
7:55 am 07:55 Sunny 79 26 68 20 70 70 Calm 29.8 1009 10 16.09344 0 0
8:15 am 08:15 Sunny 79 26 70 21 74 74 SSW 3 6 29.8 1009 10 16.09344 0 0
8:35 am 08:35 Sunny 81 27 70 21 70 70 SW 3 6 29.8 1009 10 16.09344 0 0
8:55 am 08:55 Sunny 82 28 72 22 70 70 SW 5 7 29.8 1009 10 16.09344 0 0
9:15 am 09:15 Sunny 82 28 70 21 66 66 SW 6 9 29.8 1009 10 16.09344 0 0
9:35 am 09:35 Sunny 82 28 72 22 70 70 SW 6 9 29.8 1009 10 16.09344 0 0
9:55 am 09:55 Sunny 86 30 70 21 59 59 SW 9 15 29.74 1007 10 16.09344 0 0
10:15 am 10:15 Sunny 86 30 70 21 59 59 SW 7 11 29.74 1007 10 16.09344 0 0
10:35 am 10:35 Sunny 86 30 70 21 59 59 SW 10 17 29.74 1007 10 16.09344 0 0
10:55 am 10:55 Sunny 88 31 70 21 55 55 SW 8 13 29.74 1007 10 16.09344 0 0
11:15 am 11:15 Sunny 88 31 70 21 55 55 WSW 9 15 29.74 1007 10 16.09344 0 0
11:35 am 11:35 Sunny 88 31 70 21 55 55 SSW 9 15 29.74 1007 10 16.09344 0 0
11:55 am 11:55 Partly Cloudy 88 31 70 21 55 55 WSW 7 11 29.74 1007 10 16.09344 0 0
12:15 pm 12:15 Partly Cloudy 90 32 70 21 52 52 WSW 7 11 29.74 1007 10 16.09344 0 0
12:55 pm 12:55 Partly Cloudy 90 32 70 21 52 52 W 9 15 29.71 1006 10 16.09344 0 0
1:15 pm 13:15 Mostly Cloudy 88 31 70 21 55 55 W 12 19 29.71 1006 10 16.09344 0 0
1:35 pm 13:35 Mostly Cloudy 90 32 70 21 52 52 WSW 8 13 29.71 1006 10 16.09344 0 0
1:55 pm 13:55 Partly Cloudy 90 32 70 21 52 52 WSW 8 13 29.71 1006 10 16.09344 0 0
2:15 pm 14:15 Partly Cloudy 91 33 70 21 49 49 SW 13 20 29.68 1005 10 16.09344 0 0
2:35 pm 14:35 Partly Cloudy 91 33 72 22 52 52 SW 13 20 29.68 1005 10 16.09344 0 0
2:55 pm 14:55 Sunny 91 33 72 22 52 52 SW 10 17 29.68 1005 10 16.09344 0 0
3:15 pm 15:15 Sunny 91 33 70 21 49 49 SW 13 20 29.68 1005 10 16.09344 0 0
3:35 pm 15:35 Sunny 91 33 72 22 52 52 SW 10 17 29.68 1005 10 16.09344 0 0
3:55 pm 15:55 Sunny 91 33 72 22 52 52 WSW 13 20 29.65 1004 10 16.09344 0 0
4:15 pm 16:15 Partly Cloudy 91 33 72 22 52 52 WSW 13 20 29.65 1004 10 16.09344 0 0
4:35 pm 16:35 Partly Cloudy 91 33 70 21 49 49 WSW 14 22 29.65 1004 10 16.09344 0 0
4:55 pm 16:55 Partly Cloudy 90 32 72 22 55 55 WSW 10 17 29.65 1004 10 16.09344 0 0
5:15 pm 17:15 Partly Cloudy 90 32 72 22 55 55 W 12 19 29.68 1005 10 16.09344 0 0
5:35 pm 17:35 Partly Cloudy 90 32 64 18 43 43 W 14 22 29.68 1005 10 16.09344 0 0
5:55 pm 17:55 Sunny 88 31 64 18 46 46 W 8 13 29.68 1005 10 16.09344 0 0
6:15 pm 18:15 Sunny 86 30 63 17 46 46 W 10 17 29.68 1005 10 16.09344 0 0
6:55 pm 18:55 Sunny 86 30 64 18 49 49 W 14 22 29.71 1006 10 16.09344 0 0
7:30 pm 19:30 Sunny 84 29 63 17 48 48 WSW 6 9 29.71 1006 10 16.09344 0 0
7:58 pm 19:58 Sunny 84 29 64 18 51 51 WSW 5 7 29.71 1006 10 16.09344 0 0
8:10 pm 20:10 Sunny 82 28 63 17 51 51 WSW 3 6 29.71 1006 10 16.09344 0 0
9:00 pm 21:00 Clear 81 27 64 18 58 58 W 7 11 29.74 1007 10 16.09344 0 0
9:15 pm 21:15 Clear 81 27 64 18 58 58 WNW 9 15 29.74 1007 10 16.09344 0 0
9:35 pm 21:35 Clear 81 27 63 17 54 54 W 5 7 29.74 1007 10 16.09344 0 0
9:55 pm 21:55 Clear 81 27 63 17 54 54 Calm 29.77 1008 10 16.09344 0 0
10:35 pm 22:35 Clear 79 26 64 18 61 61 WSW 3 6 29.77 1008 10 16.09344 0 0
10:55 pm 22:55 Clear 77 25 64 18 65 65 WNW 3 6 29.77 1008 10 16.09344 0 0
11:15 pm 23:15 Partly Cloudy 75 24 64 18 69 69 NW 5 7 29.77 1008 10 16.09344 0 0
11:35 pm 23:35 Mostly Cloudy 77 25 64 18 65 65 NNW 8 13 29.8 1009 10 16.09344 0 0
11:55 pm 23:55 Partly Cloudy 73 23 64 18 74 74 Calm 29.8 1009 10 16.09344 0 0

Powered by AerisWeather